• In Latvia
  • List of Countries
  • For 7 days
  • Water Temperature
  • Satellite Maps
  • Weather Map
  • Weather Widgets
  • user-avatar
    Login

    Hourly Weather Rundale

    Today, 12 December, Tuesday

    Time Temperature Precipitation Wind Pressure Humidity
    00:00 -2°C° 0 mm 5 mps 746 mmHg 90%
    01:00 -2°C° 0 mm 5 mps 746 mmHg 90%
    02:00 -2°C° 0 mm 5 mps 746 mmHg 90%
    03:00 -2°C° 0.1 mm 6 mps 745 mmHg 89%
    04:00 -2°C° 0.1 mm 6 mps 745 mmHg 89%
    05:00 -2°C° 0.1 mm 6 mps 744 mmHg 89%
    06:00 -1°C° 0.2 mm 6 mps 743 mmHg 89%
    07:00 -1°C° 0.2 mm 7 mps 743 mmHg 90%
    08:00 0°C° 0.2 mm 7 mps 742 mmHg 90%
    09:00 0°C° 0.6 mm 7 mps 742 mmHg 90%
    10:00 0°C° 0.6 mm 7 mps 741 mmHg 91%
    11:00 +2°C° 0.6 mm 7 mps 741 mmHg 91%
    12:00 +2°C° 0.7 mm 7 mps 741 mmHg 91%
    13:00 +3°C° 0.7 mm 7 mps 741 mmHg 91%
    14:00 +4°C° 0.7 mm 6 mps 741 mmHg 91%
    15:00 +3°C° 0.2 mm 6 mps 741 mmHg 90%
    16:00 +3°C° 0.2 mm 6 mps 742 mmHg 89%
    17:00 +3°C° 0.2 mm 6 mps 742 mmHg 88%
    18:00 +3°C° 0 mm 7 mps 742 mmHg 86%
    19:00 +3°C° 0 mm 7 mps 743 mmHg 84%
    20:00 +3°C° 0 mm 7 mps 743 mmHg 81%
    21:00 +2°C° 0 mm 8 mps 743 mmHg 80%
    22:00 +1°C° 0 mm 8 mps 744 mmHg 79%
    23:00 +1°C° 0 mm 8 mps 744 mmHg 78%

    Tomorrow, 13 December, Wednesday

    Time Temperature Precipitation Wind Pressure Humidity
    00:00 +1°C° 0.3 mm 9 mps 744 mmHg 78%
    01:00 +1°C° 0.3 mm 9 mps 745 mmHg 78%
    02:00 +1°C° 0.3 mm 9 mps 745 mmHg 78%
    03:00 0°C° 0.4 mm 8 mps 746 mmHg 79%
    04:00 0°C° 0.4 mm 8 mps 748 mmHg 80%
    05:00 0°C° 0.4 mm 7 mps 749 mmHg 81%
    06:00 -1°C° 0.2 mm 6 mps 750 mmHg 80%
    07:00 -1°C° 0.2 mm 6 mps 751 mmHg 79%
    08:00 -1°C° 0.2 mm 5 mps 752 mmHg 77%
    09:00 -1°C° 0.3 mm 5 mps 752 mmHg 79%
    10:00 -1°C° 0.3 mm 6 mps 753 mmHg 80%
    11:00 -1°C° 0.3 mm 6 mps 753 mmHg 82%
    12:00 -1°C° 0.2 mm 6 mps 753 mmHg 81%
    13:00 +1°C° 0.2 mm 6 mps 754 mmHg 81%
    14:00 +1°C° 0.2 mm 6 mps 754 mmHg 80%
    15:00 +1°C° 0 mm 6 mps 754 mmHg 82%
    16:00 0°C° 0 mm 5 mps 754 mmHg 83%
    17:00 -1°C° 0 mm 5 mps 754 mmHg 84%
    18:00 -1°C° 0 mm 5 mps 754 mmHg 86%
    19:00 -2°C° 0 mm 5 mps 754 mmHg 87%
    20:00 -2°C° 0 mm 5 mps 754 mmHg 88%
    21:00 -2°C° 0 mm 5 mps 754 mmHg 88%
    22:00 -2°C° 0 mm 5 mps 754 mmHg 88%
    23:00 -4°C° 0 mm 5 mps 753 mmHg 87%

    Day after tomorrow, 14 December, Thursday

    Time Temperature Precipitation Wind Pressure Humidity
    00:00 -4°C° 0 mm 6 mps 753 mmHg 86%
    01:00 -3°C° 0 mm 6 mps 752 mmHg 85%
    02:00 -3°C° 0 mm 6 mps 752 mmHg 84%
    03:00 -3°C° 0 mm 6 mps 751 mmHg 82%
    04:00 -3°C° 0 mm 7 mps 750 mmHg 80%
    05:00 -3°C° 0 mm 7 mps 749 mmHg 78%
    06:00 -3°C° 0 mm 7 mps 748 mmHg 76%
    07:00 -4°C° 0 mm 8 mps 748 mmHg 75%
    08:00 -4°C° 0 mm 8 mps 747 mmHg 74%
    09:00 -2°C° 0.1 mm 8 mps 747 mmHg 75%
    10:00 -2°C° 0.1 mm 8 mps 746 mmHg 75%
    11:00 -2°C° 0.1 mm 8 mps 746 mmHg 76%
    12:00 -2°C° 0.2 mm 8 mps 745 mmHg 76%
    13:00 -1°C° 0.2 mm 8 mps 744 mmHg 77%
    14:00 -1°C° 0.2 mm 7 mps 744 mmHg 77%
    15:00 -1°C° 0.5 mm 7 mps 743 mmHg 80%
    16:00 -1°C° 0.5 mm 7 mps 743 mmHg 83%
    17:00 -2°C° 0.5 mm 6 mps 742 mmHg 85%
    18:00 -1°C° 0.7 mm 6 mps 742 mmHg 87%
    19:00 0°C° 0.7 mm 5 mps 742 mmHg 88%
    20:00 0°C° 0.7 mm 5 mps 741 mmHg 90%
    21:00 0°C° 0.9 mm 5 mps 741 mmHg 88%
    22:00 -1°C° 0.9 mm 6 mps 742 mmHg 87%
    23:00 -1°C° 0.9 mm 7 mps 742 mmHg 85%

    15 December, Friday

    Time Temperature Precipitation Wind Pressure Humidity
    00:00 -1°C° 0 mm 6 mps 743 mmHg 85%
    01:00 -2°C° 0 mm 6 mps 744 mmHg 84%
    02:00 -2°C° 0 mm 6 mps 745 mmHg 83%
    03:00 -3°C° 0 mm 6 mps 745 mmHg 84%
    04:00 -2°C° 0 mm 5 mps 745 mmHg 85%
    05:00 -4°C° 0 mm 5 mps 745 mmHg 86%
    06:00 -4°C° 0 mm 5 mps 745 mmHg 86%
    07:00 -4°C° 0 mm 5 mps 746 mmHg 85%
    08:00 -4°C° 0 mm 5 mps 746 mmHg 85%
    09:00 -2°C° 0 mm 5 mps 746 mmHg 83%
    10:00 -2°C° 0 mm 5 mps 746 mmHg 82%
    11:00 -3°C° 0 mm 6 mps 746 mmHg 80%
    12:00 -1°C° 0 mm 5 mps 745 mmHg 81%
    13:00 -1°C° 0 mm 5 mps 745 mmHg 82%
    14:00 0°C° 0 mm 5 mps 744 mmHg 82%
    15:00 0°C° 0.7 mm 5 mps 743 mmHg 85%
    16:00 0°C° 0.7 mm 5 mps 743 mmHg 87%
    17:00 0°C° 0.7 mm 5 mps 742 mmHg 89%
    18:00 0°C° 0.5 mm 5 mps 742 mmHg 90%
    19:00 0°C° 0.5 mm 4 mps 742 mmHg 92%
    20:00 0°C° 0.5 mm 4 mps 741 mmHg 93%
    21:00 0°C° 0.5 mm 4 mps 742 mmHg 92%
    22:00 0°C° 0.5 mm 4 mps 742 mmHg 92%
    23:00 0°C° 0.5 mm 5 mps 742 mmHg 92%

    16 December, Saturday

    Time Temperature Precipitation Wind Pressure Humidity
    00:00 0°C° 0.2 mm 5 mps 743 mmHg 91%
    01:00 0°C° 0.2 mm 5 mps 744 mmHg 90%
    02:00 0°C° 0.2 mm 5 mps 745 mmHg 90%
    03:00 0°C° 0 mm 5 mps 745 mmHg 90%
    04:00 -1°C° 0 mm 5 mps 746 mmHg 90%
    05:00 -1°C° 0 mm 5 mps 747 mmHg 90%
    06:00 -1°C° 0 mm 5 mps 747 mmHg 90%
    07:00 -2°C° 0 mm 5 mps 747 mmHg 90%
    08:00 -2°C° 0 mm 4 mps 748 mmHg 91%
    09:00 -2°C° 0 mm 4 mps 748 mmHg 91%
    10:00 -2°C° 0 mm 4 mps 749 mmHg 92%
    11:00 -3°C° 0 mm 4 mps 749 mmHg 92%
    12:00 -2°C° 0 mm 3 mps 749 mmHg 92%
    13:00 -2°C° 0 mm 3 mps 749 mmHg 92%
    14:00 -2°C° 0 mm 3 mps 749 mmHg 93%
    15:00 -2°C° 0 mm 3 mps 749 mmHg 93%
    16:00 -2°C° 0 mm 3 mps 749 mmHg 94%
    17:00 -3°C° 0 mm 2 mps 749 mmHg 95%
    18:00 -3°C° 0 mm 2 mps 749 mmHg 95%
    19:00 -3°C° 0 mm 2 mps 749 mmHg 95%
    20:00 -3°C° 0 mm 2 mps 749 mmHg 95%
    21:00 -2°C° 0.1 mm 3 mps 749 mmHg 95%
    22:00 -2°C° 0.1 mm 3 mps 749 mmHg 95%
    23:00 -1°C° 0.1 mm 3 mps 750 mmHg 94%

    17 December, Sunday

    Time Temperature Precipitation Wind Pressure Humidity
    00:00 -1°C° 0.1 mm 3 mps 750 mmHg 94%
    01:00 -1°C° 0.1 mm 3 mps 750 mmHg 94%
    02:00 -1°C° 0.1 mm 3 mps 750 mmHg 93%
    03:00 -2°C° 0.1 mm 4 mps 750 mmHg 93%
    04:00 -2°C° 0.1 mm 4 mps 750 mmHg 93%
    05:00 -2°C° 0.1 mm 4 mps 751 mmHg 93%
    06:00 -2°C° 0.2 mm 4 mps 751 mmHg 92%
    07:00 -2°C° 0.2 mm 4 mps 751 mmHg 92%
    08:00 -2°C° 0.2 mm 4 mps 752 mmHg 92%
    09:00 -1°C° 0 mm 3 mps 752 mmHg 92%
    10:00 -1°C° 0 mm 3 mps 752 mmHg 92%
    11:00 -1°C° 0 mm 3 mps 753 mmHg 91%
    12:00 -1°C° 0 mm 3 mps 753 mmHg 91%
    13:00 -1°C° 0 mm 3 mps 753 mmHg 90%
    14:00 -1°C° 0 mm 3 mps 754 mmHg 90%
    15:00 -1°C° 0 mm 3 mps 754 mmHg 90%
    16:00 -2°C° 0 mm 4 mps 754 mmHg 90%
    17:00 -2°C° 0 mm 4 mps 755 mmHg 90%
    18:00 -2°C° 0 mm 4 mps 755 mmHg 90%
    19:00 -2°C° 0 mm 4 mps 756 mmHg 90%
    20:00 -2°C° 0 mm 4 mps 756 mmHg 90%
    21:00 -3°C° 0 mm 4 mps 756 mmHg 90%
    22:00 -3°C° 0 mm 4 mps 757 mmHg 90%
    23:00 -3°C° 0 mm 4 mps 757 mmHg 90%
    Show more